EHI
0 0 0 0 0 0 0 0 0 0 0 0 0 0 0 0 0 0 0 0 0 0 0 0 0 0 0 0 0 0 0 0 0 0 0 0 0 0 0 0 0 0 0 0
0 0 0 0 0 0 0 0 0 0 0 0 0 0 0 0 0 0 0 0 0 0 0 0 0 0 0 0 0 0 0 0 0 0 0 0 0 0 0 0 0 0 0 0
0 0 0 0 0 0 0 0 0 0 0 0 0 0 0 0 0 0 0 0 0 0 0 0 0 0 0 0 0 0 0 0 0 0 0 0 0 0 0 0 0 0 0 0
0 0 0 0 0 0 0 0 0 0 0 0 0 0 0 0 0 0 0 0 0 0 0 0 0 0 0 0 0 0 0 0 0 0 0 0 0 0 0 0 0 0 0 0
0 0 0 0 0 0 0 0 0 0 0 0 0 0 0 0 0 0 0 0 0 0 0 0 0 0 0 0 0 0 0 0 0 0 0 0 0 0 0 0 0 0 0 0
0 0 0 0 0 0 0 0 0 0 0 0 0 0 0 0 0 0 0 0 0 0 0 0 0 0 0 0 0 0 0 0 0 0 0 0 0 0 0 0 0 0 0 0
0 0 0 0 0 0 0 0 0 0 0 0 0 0 0 0 0 0 0 0 0 0 0 0 0 0 0 0 0 0 0 0 0 0 0 0 0 0 0 0 0 0 0 0
0 0 0 0 0 0 0 0 0 0 0 0 0 0 0 0 0 0 0 0 0 0 0 0 0 0 0 0 0 0 0 0 0 0 0 0 0 0 0 0 0 0 0 0
0 0 0 0 0 0 0 0 0 0 0 0 0 0 0 0 0 0 0 0 0 0 0 0 0 0 0 0 0 0 0 0 0 0 0 0 0 0 0 0 0 0 0 0
0 0 0 0 0 0 0 0 0 0 0 0 0 0 0 0 0 0 0 0 0 0 0 0 0 0 0 0 0 0 0 0 0 0 0 0 0 0 0 0 0 0 0 0
0 0 0 0 0 0 0 0 0 0 0 0 0 0 0 0 0 0 0 0 0 0 0 0 0 0 0 0 0 0 0 0 0 0 0 0 0 0 0 0 0 0 0 0
0 0 0 0 0 0 0 0 0 0 0 0 0 0 0 0 0 0 0 0 0 0 0 0 0 0 0 0 0 0 0 0 0 0 0 0 0 0 0 0 0 0 0 0
0 0 0 0 0 0 0 0 0 0 0 0 0 0 0 0 0 0 0 0 0 0 0 0 0 0 0 0 0 0 0 0 0 0 0 0 0 0 0 0 0 0 0 0
0 0 0 0 0 0 0 0 0 0 0 0 0 0 0 0 0 0 0 0 0 0 0 0 0 0 0 0 0 0 0 0 0 0 0 0 0 0 0 0 0 0 0 0
0 0 0 0 0 0 0 0 0 0 0 0 0 0 0 0 0 0 0 0 0 0 0 0 0 0 0 0 0 0 0 0 0 0 0 0 0 0 0 0 0 0 0 0
0 0 0 0 0 0 0 0 0 0 0 0 0 0 0 0 0 0 0 0 0 0 0 0 0 0 0 0 0 0 0 0 0 0 0 0 0 0 0 0 0 0 0 0
0 0 0 0 0 0 0 0 0 0 0 0 0 0 0 0 0 0 0 0 0 0 0 0 0 0 0 0 0 0 0 0 0 0 0 0 0 0 0 0 0 0 0 0
0 0 0 0 0 0 0 0 0 0 0 0 0 0 0 0 0 0 0 0 0 0 0 0 0 0 0 0 0 0 0 0 0 0 0 0 0 0 0 0 0 0 0 0
0 0 0 0 0 0 0 0 0 0 0 0 0 0 0 0 0 0 0 0 0 0 0 0 0 0 0 0 0 0 0 0 0 0 0 0 0 0 0 0 0 0 0 0
0 0 0 0 0 0 0 0 0 0 0 0 0 0 0 0 0 0 0 0 0 0 0 0 0 0 0 0 0 0 0 0 0 0 0 0 0 0 0 0 0 0 0 0
0 0 0 0 0 0 0 0 0 0 0 0 0 0 0 0 0 0 0 0 0 0 0 0 0 0 0 0 0 0 0 0 0 0 0 0 0 0 0 0 0 0 0 0
0 0 0 0 0 0 0 0 0 0 0 0 0 0 0 0 0 0 0 0 0 0 0 0 0 0 0 0 0 0 0 0 0 0 0 0 0 0 0 0 0 0 0 0
0 0 0 0 0 0 0 0 0 0 0 0 0 0 0 0 0 0 0 0 0 0 0 0 0 0 0 0 0 0 0 0 0 0 0 0 0 0 0 0 0 0 0 0
0 0 0 0 0 0 0 0 0 0 0 0 0 0 0 0 0 0 0 0 0 0 0 0 0 0 0 0 0 0 0 0 0 0 0 0 0 0 0 0 0 0 0 0
0 0 0 0 0 0 0 0 0 0 0 0 0 0 0 0 0 0 0 0 0 0 0 0 0 0 0 0 0 0 0 0 0 0 0 0 0 0 0 0 0 0 0 0
0 0 0 0 0 0 0 0 0 0 0 0 0 0 0 0 0 0 0 0 0 0 0 0 0 0 0 0 0 0 0 0 0 0 0 0 0 0 0 0 0 0 0 0
0 0 0 0 0 0 0 0 0 0 0 0 0 0 0 0 0 0 0 0 0 0 0 0 0 0 0 0 0 0 0 0 0 0 0 0 0 0 0 0 0 0 0 0
Wind_Speed
2 2 3 5 6 8 9 8 8 8 8 13 11 10 8 5 5 6 6 7 8 8 8 8 8 7 7 7 7 6 7 7 8 8 9 10 11 12 12 13 13 13 14 13
1 1 3 5 8 10 10 9 11 10 14 14 9 5 4 4 4 5 6 7 7 8 8 8 7 6 6 7 7 7 8 9 9 11 12 12 12 13 13 13 13 13 13 13
1 2 1 7 10 13 8 8 9 13 13 9 8 7 4 3 3 4 5 5 6 6 6 6 6 5 6 7 8 9 9 9 10 11 12 12 12 13 13 13 13 13 12 12
0 1 6 7 2 7 8 8 10 10 10 8 6 3 1 0 1 2 3 4 5 5 5 5 5 5 6 7 8 9 9 10 10 11 12 11 12 12 12 10 11 10 10 10
1 2 7 7 3 6 6 6 7 11 12 8 1 1 2 2 1 1 2 2 3 3 4 5 6 6 7 8 8 9 9 9 9 10 10 10 11 11 10 10 10 9 8 8
2 2 5 4 1 2 3 4 3 5 7 4 1 2 2 3 3 2 3 3 4 4 5 6 6 6 8 8 8 8 8 8 8 9 9 10 10 9 8 8 9 8 8 7
4 4 8 7 2 3 2 3 2 3 4 3 4 3 3 5 3 3 3 4 4 5 5 5 5 6 8 8 7 7 7 8 9 9 9 9 9 8 8 8 9 8 8 7
5 5 8 3 5 5 5 2 2 2 2 3 3 4 5 5 5 4 4 4 4 5 5 5 5 6 7 7 6 6 8 8 8 8 7 7 8 8 7 7 8 6 6 5
7 8 4 2 5 4 2 3 3 2 2 3 4 5 5 5 5 5 4 4 4 5 5 5 5 5 7 5 5 7 8 8 8 8 7 7 7 7 6 5 5 4 3 3
5 7 6 7 6 5 4 4 2 2 3 4 5 6 6 6 6 5 5 4 4 5 5 5 5 5 5 5 5 7 8 7 6 7 7 6 5 5 4 4 4 3 3 2
5 6 6 4 2 2 1 1 1 1 2 4 6 6 7 7 6 6 5 5 5 5 5 5 5 5 4 5 6 7 7 6 6 6 5 5 5 4 4 2 3 3 2 1
5 3 3 4 2 1 1 2 2 2 2 3 6 7 7 7 6 6 6 5 5 5 5 5 5 5 4 4 5 7 6 5 4 4 4 4 4 4 8 6 8 7 4 2
3 2 3 4 2 1 1 2 2 3 4 4 5 6 7 6 6 7 7 7 6 6 6 5 5 5 4 4 5 6 6 4 3 3 3 3 3 3 3 4 7 8 8 7
2 2 3 2 3 2 1 1 2 2 3 4 5 6 7 6 7 7 7 7 7 7 6 6 6 4 3 5 6 6 5 5 5 3 3 3 3 2 2 2 2 3 5 8
3 3 4 4 3 1 0 1 2 2 3 4 5 6 7 8 8 7 6 7 7 7 6 6 6 4 4 5 6 6 5 4 3 3 3 3 3 2 2 2 1 2 2 4
7 5 3 3 3 2 2 3 4 4 5 5 6 6 7 7 7 7 7 8 8 8 7 6 6 5 5 6 6 5 4 7 5 3 3 2 2 2 1 1 1 2 3 3
5 5 4 4 5 4 5 5 5 5 6 7 7 7 7 8 7 7 6 6 5 6 6 6 6 5 5 6 6 4 4 4 6 4 2 2 1 1 0 1 1 2 3 5
5 7 7 7 7 7 6 5 5 6 6 6 7 8 9 9 9 8 7 6 6 5 4 5 6 6 6 6 5 4 4 3 3 2 2 1 1 1 0 1 2 3 3 4
5 6 6 6 6 5 5 4 4 5 6 7 9 9 8 7 7 8 8 8 8 7 5 6 10 7 6 6 6 4 4 4 3 2 1 1 1 1 1 2 2 3 4 4
6 6 6 5 4 3 2 2 3 4 5 7 8 7 7 7 8 8 8 7 6 4 6 8 7 6 6 6 7 4 4 4 3 2 2 1 1 2 2 2 3 3 4 4
7 7 6 5 5 3 1 0 3 4 5 7 8 8 7 7 8 8 7 6 4 6 8 11 7 5 5 6 7 4 4 4 3 3 2 2 2 2 2 3 3 4 4 4
6 6 6 5 5 4 3 1 1 3 4 5 6 6 7 8 8 6 6 4 6 11 7 6 5 8 9 9 4 4 4 4 3 3 3 2 2 3 3 3 4 4 4 4
5 5 5 5 4 3 2 2 0 1 3 5 6 7 7 7 7 7 6 4 6 12 8 6 9 13 14 7 5 5 4 4 4 3 3 3 3 3 3 4 4 4 4 5
5 5 5 4 4 3 3 3 2 1 1 3 4 5 6 5 5 4 3 9 13 13 7 10 15 15 13 5 5 4 4 4 3 3 3 3 3 3 4 4 4 5 5 6
4 4 4 4 4 3 3 3 2 1 1 1 2 4 4 4 4 5 5 7 13 13 7 11 16 15 9 5 5 5 4 4 4 4 4 3 3 3 4 4 4 5 5 5
3 3 3 3 3 3 2 2 2 2 1 1 1 2 2 2 4 5 5 6 9 12 8 6 7 10 6 6 5 5 4 4 4 3 3 3 4 4 4 4 6 5 5 6
3 3 3 3 2 2 2 2 2 2 2 2 2 2 3 3 4 5 6 6 6 6 6 6 5 6 6 6 5 5 4 3 3 3 3 3 4 4 4 5 5 5 5 6
Wind_Direction
204 190 168 197 192 186 194 194 205 236 244 270 282 292 299 309 325 336 346 349 349 347 342 344 349 355 3 7 10 31 53 61 68 72 77 80 84 88 91 93 96 98 99 97
318 232 211 233 221 207 215 219 236 259 274 270 275 277 284 308 328 334 341 343 346 349 349 351 353 2 15 24 28 48 63 68 74 79 81 82 85 88 90 91 92 94 94 95
288 310 338 260 224 201 201 206 204 234 248 270 287 289 288 303 325 329 336 344 351 351 351 355 3 22 40 42 49 58 65 68 74 81 84 85 89 88 89 90 91 90 90 92
237 3 248 246 217 184 201 228 216 234 255 268 273 285 241 207 302 325 344 351 353 353 2 13 25 43 54 56 60 64 67 70 75 82 85 86 87 87 87 87 87 89 90 92
188 268 280 289 239 171 185 256 225 230 255 267 282 307 239 151 110 50 17 14 11 18 31 38 44 54 63 62 63 67 69 72 76 83 86 87 87 87 87 89 86 84 86 89
188 251 257 258 258 157 134 272 247 214 249 258 194 282 259 136 112 82 60 51 46 46 54 56 54 64 72 68 66 67 70 74 76 80 85 86 86 85 82 84 85 83 78 73
207 244 266 254 222 132 190 236 248 235 247 227 211 218 137 127 116 102 85 73 66 64 61 59 64 75 76 72 69 71 75 76 76 78 81 84 83 82 86 88 85 81 78 66
188 217 254 243 148 186 229 261 257 251 236 215 176 130 134 138 131 123 106 90 83 79 68 58 66 81 83 75 74 78 80 78 74 72 76 80 83 80 81 88 89 85 83 71
200 221 243 232 219 239 226 252 255 230 220 167 160 164 156 148 143 135 124 112 102 98 85 68 65 84 92 85 88 89 85 79 76 73 69 72 82 86 80 79 88 88 83 76
250 262 260 259 256 255 234 236 247 219 194 173 172 165 159 153 150 144 137 130 122 113 103 89 80 85 93 96 92 91 87 81 78 78 73 66 66 75 85 87 89 88 84 75
247 272 291 282 258 258 241 210 179 161 179 179 164 164 162 159 159 154 147 141 135 128 120 114 108 99 96 99 102 96 89 84 79 78 82 75 68 74 89 98 129 120 122 119
228 244 249 282 312 300 230 236 205 176 166 163 167 164 157 158 157 153 150 145 138 133 130 126 120 110 105 108 113 111 102 92 89 89 83 80 77 63 66 76 73 73 77 77
268 310 262 275 298 319 268 244 201 189 180 166 160 159 154 152 153 150 150 150 149 145 139 133 126 118 116 118 114 112 116 114 103 100 99 95 89 86 64 43 50 46 33 21
24 352 309 314 306 306 280 186 141 137 151 156 154 151 148 146 149 155 158 156 148 141 140 139 132 129 130 124 116 113 113 118 115 109 107 100 92 83 76 58 19 357 2 2
6 335 283 287 292 288 171 145 148 162 159 156 157 158 157 158 161 160 153 146 141 141 145 145 141 142 138 130 124 124 121 118 114 110 103 97 91 83 71 56 27 346 335 341
316 308 295 287 279 261 231 210 206 202 187 178 173 172 166 157 150 148 152 153 155 161 161 156 154 155 145 134 128 124 128 136 129 117 106 98 91 84 63 27 354 337 324 314
310 313 314 303 289 272 245 230 219 208 193 187 180 164 151 145 146 153 157 158 154 153 157 157 155 148 144 140 136 133 128 134 131 116 114 118 113 103 41 323 309 303 296 299
278 279 278 278 277 271 260 238 216 203 194 184 163 158 162 167 171 167 157 143 133 135 151 152 148 144 142 142 137 135 133 129 129 133 134 149 153 164 251 282 291 295 295 304
309 301 294 285 277 265 254 238 216 196 177 165 167 174 177 175 166 158 153 157 163 172 176 165 161 151 149 156 145 135 137 138 135 137 145 182 156 211 258 274 281 284 289 294
333 330 327 322 318 296 266 240 190 172 168 166 167 169 171 169 161 161 166 181 188 176 159 162 156 152 153 159 149 139 145 151 157 164 173 192 215 243 259 270 279 283 285 289
344 345 348 349 346 346 349 166 169 173 172 172 177 180 176 168 166 166 172 191 188 160 161 166 159 156 156 161 154 145 154 162 171 183 198 214 232 249 261 272 283 288 290 292
348 351 353 354 357 358 358 23 145 168 174 180 181 171 167 170 174 181 194 189 167 171 164 162 159 170 172 162 149 157 166 174 181 189 204 218 234 252 264 272 276 281 283 285
349 350 352 352 348 340 354 16 38 181 190 193 189 184 183 182 180 184 197 184 165 176 168 169 177 179 174 159 158 168 175 183 191 199 210 220 231 242 256 268 271 275 280 283
352 353 349 345 350 1 356 342 329 289 229 210 202 191 182 179 192 201 170 172 179 179 174 181 182 183 172 155 165 173 182 190 196 204 215 225 234 243 252 262 270 274 275 280
343 341 345 350 352 342 328 326 331 323 282 240 218 200 192 189 189 183 170 175 182 177 171 186 186 183 166 160 173 180 186 195 200 205 215 226 237 247 255 260 264 272 276 277
338 331 323 314 308 307 311 311 300 288 267 256 242 210 194 180 168 164 169 177 183 179 173 176 179 175 162 169 177 184 190 205 220 217 218 230 242 249 256 262 268 269 273 275
327 324 321 323 326 326 317 301 286 278 263 251 248 215 192 182 175 174 174 175 179 173 168 168 164 160 164 170 177 184 189 195 204 214 223 232 240 247 256 263 267 271 274 277